User: anonymous   Login
Location: Cutler
(25.6150°N, 80.3110°W)
Time: 02:44:36
(UTC-05:00)
Language:

Tiangong 1 - Orbit

View from above orbital plane
View from above orbital plane
View from above satellite
View from above satellite

Ground track
Ground track

The orbit data is extracted from the following two-line orbital elements,

1 37820U 11053A   17323.79447917  .00056679  94424-5  17054-3 0  9995
2 37820  42.7546 319.6299 0017628 114.5190 245.4627 15.91871945352644
Epoch (UTC): 19 November 2017 19:04:03
Eccentricity: 0.0017628
inclination: 42.7546°
perigee height: 285 km
apogee height: 309 km
right ascension of ascending node: 319.6299°
argument of perigee: 114.5190°
revolutions per day: 15.91871945
mean anomaly at epoch: 245.4627°
orbit number at epoch: 35264

The dashed part of the orbit path shows where the satellite is in the earth's shadow,  

DLR